Regional Weather Roundup
Issued by NWS Goodland, KS

Home | Current Version | Previous Version | Text Only | Print | Product List | Glossary Off
Versions: 1 2 3 4 5 6 7 8 9 10 11 12 13 14 15 16 17 18 19 20 21 22 23 24 25 26 27 28 29 30 31 32 33 34 35 36 37 38 39 40 41 42 43 44 45 46 47 48 49 50

000
ASUS43 KGLD 222359
RWRGLD

GOODLAND FORECAST AREA HOURLY WEATHER ROUNDUP
NATIONAL WEATHER SERVICE GOODLAND KS
600 PM MDT TUE JUL 22 2014

...OFFICIAL OBSERVATIONS...

CITY           SKY/WX    TMP DP  RH WIND       PRES   REMARKS
GOODLAND KS    SUNNY     95  57  27 SE9       30.17S
HILL CITY KS   SUNNY     98  65  33 SE7       30.09S HX 101
IMPERIAL NEB   SUNNY     92  60  34 SE14      30.18S
MCCOOK NEB     SUNNY     90  64  42 NE15      30.14S
AKRON CO       SUNNY     90  57  32 E16       30.24F
BURLINGTON CO  SUNNY     93  56  28 E12G17    30.20S
LIMON CO       MOSUNNY   92  47  21 E13       30.28S
$$

...UNOFFICIAL OBSERVATIONS...

CITY           SKY/WX    TMP DP  RH WIND       PRES   REMARKS
COLBY KS       SUNNY     95  66  38 E9        30.15R
GOVE KS          N/A     97  32  10 MISG        N/A
LENORA KS        N/A     95  32  11 MISG        N/A
NORTON KS      SUNNY     91  63  38 NE16G24   30.11R
SHARON SPRINGS   N/A     97  61  30 S7          N/A
KIT CARSON CO    N/A    101  49  17 N10G20      N/A
YUMA CO          N/A     90  58  34 E12         N/A
$$


USA.gov is the U.S. government's official web portal to all federal, state and local government web resources and services.